TimeAKDT,TemperatureF,Dew PointF,Humidity,Sea Level PressureIn,VisibilityMPH,Wind Direction,Wind SpeedMPH,Gust SpeedMPH,PrecipitationIn,Events,Conditions,WindDirDegrees,DateUTC
12:58 AM,39.0,37.9,96,29.87,9.0,Calm,Calm,-,N/A,,Clear,0,2013-09-13 08:58:00
1:13 AM,39.2,39.2,100,29.85,10.0,Calm,Calm,-,N/A,,Clear,0,2013-09-13 09:13:00
1:58 AM,37.9,37.0,97,29.87,10.0,ENE,1.2,-,N/A,,Partly Cloudy,60,2013-09-13 09:58:00
2:58 AM,35.8,34.9,97,29.88,10.0,Calm,Calm,-,N/A,,Clear,0,2013-09-13 10:58:00
3:58 AM,34.3,33.4,97,29.89,10.0,Calm,Calm,-,N/A,,Clear,0,2013-09-13 11:58:00
4:58 AM,33.6,32.7,96,29.90,10.0,Calm,Calm,-,N/A,,Clear,0,2013-09-13 12:58:00
5:13 AM,32.0,32.0,100,29.88,4.0,Calm,Calm,-,N/A,,Partly Cloudy,0,2013-09-13 13:13:00
5:28 AM,32.0,32.0,100,29.88,4.0,Calm,Calm,-,N/A,,Scattered Clouds,0,2013-09-13 13:28:00
5:43 AM,32.0,32.0,100,29.89,10.0,North,1.2,-,N/A,,Mostly Cloudy,360,2013-09-13 13:43:00
5:58 AM,33.6,32.9,97,29.91,10.0,Variable,2.3,-,N/A,,Overcast,0,2013-09-13 13:58:00
6:58 AM,33.4,32.4,96,29.91,4.0,Calm,Calm,-,N/A,,Scattered Clouds,0,2013-09-13 14:58:00
7:43 AM,33.8,32.0,93,29.90,10.0,Calm,Calm,-,N/A,,Clear,0,2013-09-13 15:43:00
7:58 AM,33.6,32.7,96,29.92,10.0,Calm,Calm,-,N/A,,Mostly Cloudy,0,2013-09-13 15:58:00
8:58 AM,33.3,32.2,96,29.92,2.0,ENE,1.2,-,N/A,,Mostly Cloudy,70,2013-09-13 16:58:00
9:07 AM,33.8,32.0,93,29.89,6.0,Calm,Calm,-,N/A,,Mostly Cloudy,0,2013-09-13 17:07:00
9:28 AM,35.6,35.6,100,29.90,10.0,Calm,Calm,-,N/A,,Scattered Clouds,0,2013-09-13 17:28:00
9:58 AM,40.5,39.2,95,29.92,10.0,Calm,Calm,-,N/A,,Mostly Cloudy,0,2013-09-13 17:58:00
10:58 AM,44.1,41.4,90,29.92,10.0,North,1.2,-,N/A,,Mostly Cloudy,350,2013-09-13 18:58:00
11:58 AM,46.2,43.5,90,29.93,10.0,NNW,2.3,-,N/A,,Mostly Cloudy,340,2013-09-13 19:58:00
12:58 PM,48.0,43.7,85,29.92,10.0,Calm,Calm,-,N/A,,Mostly Cloudy,0,2013-09-13 20:58:00
1:58 PM,48.0,43.3,84,29.91,10.0,North,9.2,-,N/A,,Clear,10,2013-09-13 21:58:00
2:58 PM,48.2,44.2,86,29.94,10.0,West,6.9,-,0.00,Rain,Light Rain,260,2013-09-13 22:58:00
3:58 PM,48.0,45.3,90,29.94,10.0,Calm,Calm,-,0.01,Rain,Light Rain,0,2013-09-13 23:58:00
4:58 PM,49.1,46.2,90,29.94,10.0,NNE,1.2,-,0.01,,Mostly Cloudy,30,2013-09-14 00:58:00
5:28 PM,50.0,46.4,87,29.90,10.0,ENE,1.2,-,N/A,,Mostly Cloudy,60,2013-09-14 01:28:00
5:58 PM,49.8,46.8,89,29.92,10.0,Calm,Calm,-,N/A,,Overcast,0,2013-09-14 01:58:00
6:58 PM,50.5,47.7,90,29.93,10.0,Calm,Calm,-,N/A,,Overcast,0,2013-09-14 02:58:00
7:58 PM,49.6,48.0,94,29.94,10.0,Calm,Calm,-,0.00,Rain,Light Rain,0,2013-09-14 03:58:00
8:13 PM,48.2,48.2,100,29.91,10.0,Calm,Calm,-,N/A,,Overcast,0,2013-09-14 04:13:00
8:58 PM,48.4,47.3,96,29.94,10.0,Calm,Calm,-,0.00,,Overcast,0,2013-09-14 04:58:00
9:58 PM,46.8,46.0,97,29.95,10.0,Calm,Calm,-,N/A,,Mostly Cloudy,0,2013-09-14 05:58:00
10:28 PM,46.4,46.4,100,29.93,2.0,Calm,Calm,-,N/A,,Mostly Cloudy,0,2013-09-14 06:28:00
10:43 PM,46.4,44.6,93,29.93,10.0,Calm,Calm,-,N/A,,Overcast,0,2013-09-14 06:43:00
10:58 PM,46.4,45.5,97,29.95,10.0,NE,1.2,-,N/A,,Overcast,50,2013-09-14 06:58:00
11:58 PM,46.6,45.3,95,29.96,10.0,Calm,Calm,-,N/A,,Mostly Cloudy,0,2013-09-14 07:58:00